Location: Chervonnoye
(48.6000°N, 34.4000°E)
Time: 11:08:37
(UTC+00:00)

NOAA 15 - Pass Details

Date: 06 December 2021
Orbit: 797 x 812 km, 98.7° (Epoch: 24 January)

Event Time Altitude Azimuth Distance (km) Brightness Sun altitude
Rises 18:18:26 0° 225° (SW) 3,317 8.1 -43.6°
Reaches altitude 10° 18:23:10 10° 264° (W) 2,390 7.6 -44.4°
Maximum altitude 18:24:13 11° 276° (W) 2,353 7.6 -44.6°
Drops below altitude 10° 18:25:16 10° 287° (WNW) 2,392 7.6 -44.7°
Sets 18:30:01 0° 326° (NW) 3,327 8.3 -45.5°
